Regional Weather Roundup
Issued by NWS Newport/Morehead, NC

Home | Current Version | Previous Version | Text Only | Print | Product List | Glossary On
Versions: 1 2 3 4 5 6 7 8 9 10 11 12 13 14 15 16 17 18 19 20 21 22 23 24 25 26 27 28 29 30 31 32 33 34 35 36 37 38 39 40 41 42 43 44 45 46 47 48 49 50
000
ASUS42 KMHX 280628
RWRMHX
WEATHER ROUNDUP FOR EASTERN NORTH CAROLINA
NATIONAL WEATHER SERVICE NEWPORT/MOREHEAD CITY NC
100 AM EST SAT FEB 28 2015

NOTE: "FAIR" INDICATES FEW OR NO CLOUDS BELOW 12,000 FEET
WITH NO SIGNIFICANT WEATHER AND/OR OBSTRUCTIONS TO VISIBILITY

NCZ015>017-031-032-045>047-102-103-280700-
NORTH COAST

CITY           SKY/WX    TMP DP  RH WIND       PRES   REMARKS
EDENTON        CLEAR     28  25  90 N5        30.62R
ELIZABETH CITY CLEAR     31  24  75 NE12      30.62R
KITTY HAWK     CLEAR     33  29  83 N10       30.58R
MANTEO         CLEAR     34  28  80 N10       30.59R

$$

NCZ045>047-081-094-103-104-280700-
CENTRAL COAST

CITY           SKY/WX    TMP DP  RH WIND       PRES   REMARKS
FRISCO         MOCLDY    36  32  85 N9G18     30.54S
SWANQUARTER      N/A    N/A N/A N/A N7G13     30.53S

$$

NCZ095-097-098-100-101-280700-
SOUTHERN COAST

CITY           SKY/WX    TMP DP  RH WIND       PRES   REMARKS
BEAUFORT       PTCLDY    33  29  85 N12       30.55R
CEDAR ISLAND     N/A     34 N/A N/A N14G23    30.59S
JACKSONVILLE   CLEAR     32  27  81 NE9       30.55S
PINEY ISLAND     N/A    N/A N/A N/A MISG      30.56R
WILMINGTON     PTCLDY    35  30  82 NE8       30.54R


$$

NCZ011>013-027>030-043-044-078>080-089-090>093-098-280700-
COASTAL PLAIN

CITY           SKY/WX    TMP DP  RH WIND       PRES   REMARKS
AHOSKIE        CLEAR     26  22  87 N5        30.63S
CLINTON        CLEAR     34  29  84 NE6       30.57R
ELIZABETHTOWN  PTCLDY    34  27  77 CALM      30.55R
GOLDSBORO      CLEAR     31  30  98 NE8       30.56R
GREENVILLE     CLEAR     28  27  93 NE3       30.60R
HAVELOCK       PTCLDY    32  27  81 NE12      30.57S
KENANSVILLE    PTCLDY    31  28  86 CALM      30.58R
KINSTON        CLEAR     30  28  91 NE7       30.59R
NEW BERN       CLEAR     30  27  88 N9        30.58S
RICHLANDS      CLEAR     28  25  86 NE8       30.57R
ROCKY MOUNT    CLEAR     27  24  89 NE7       30.61R
WASHINGTON     PTCLDY    29  26  89 NE6       30.60S
WHITEVILLE     PTCLDY    38  27  65 NE7       30.53R

$$

AMZ130-135-150-152-154-156-158-170-250-252-270-ANZ085-086-088-633-658-670-280700-
MARINE OBSERVATIONS

STATION/POSITION TIME  TEMP    WIND        PRES    WAVE   SWELL
                       AIR SEA DIR/SP/G            HT/PER HT/PER
                 (UTC) (F)     (DEG/KT/KT) (MB)    (FT/S) (FT/S)
CHESAPEAKE LIGHT 0600   31      20/ 22/ 24 1036.9
64 E VA BEACH    0550   39 59   10/ 19/ 23 1034.9    7/10   5/10
DUCK             0500           30/ 19/ 20 1034.7
2 E DUCK         0441      35                N/A     5/11   2/11
10 NE DUCK       0552      36                N/A     6/11   2/11
OREGON INLET     0500          360/ 12/ 15 1034.8
HATTERAS CG      0500   37 41   20/ 19/ 21 1034.2
CAPE LOOKOUT     0600   36      10/ 12/ 15 1034.0
BEAUFORT LAB     0600   34 40   20/ 11/ 13 1033.5
27 SE WRIGHTSVLE NOT AVBL
5 SE WRIGHTSVLE  NOT AVBL
225 S CAPE HAT   0550   65 70   40/ 17/ 21 1027.2   10/10   8/10
41 SE CHARLESTON 0550   55 64   50/ 21/ 25 1029.7    6/ 6   3/10

$$


USA.gov is the U.S. government's official web portal to all federal, state and local government web resources and services.